Hourly Data Report for August 09, 2022

LONDON CS
ONTARIO
Current Station Operator: ECCC - MSC

43°02'00.000" N
81°09'00.000" W
278.00 m
6144478
71622
WSN

Download Data

Hourly Data (August 2022)
Hourly Data Report for August 9, 2022
TIME
LST
Temp Definition
°C
Dew Point Definition
°C
Rel Hum Definition
%
Precip. Amount Definition
mm

Wind Dir Definition
10's deg

Wind Spd Definition
km/h
Visibility Definition
km
Stn Press Definition
kPa
Hmdx Definition


Wind Chill Definition


Weather Definition


00:00 17.7 15.6 87 0.0       98.14     LegendNANA
01:00 17.3 15.6 90 0.0       98.15     LegendNANA
02:00 17.2 15.8 91 0.0       98.19     LegendNANA
03:00 16.9 15.6 92 0.0       98.20     LegendNANA
04:00 17.3 15.4 89 0.0       98.25     LegendNANA
05:00 17.2 15.4 89 0.0       98.33     LegendNANA
06:00 16.6 14.8 89 0.0       98.40     LegendNANA
07:00 17.5 14.5 83 0.0       98.47     LegendNANA
08:00 18.1 14.0 77 0.0       98.52     LegendNANA
09:00 19.1 13.1 68 0.0       98.55     LegendNANA
10:00 20.1 12.5 62 0.0       98.57     LegendNANA
11:00 20.9 13.2 61 0.0       98.62     LegendNANA
12:00 21.7 13.0 58 0.0       98.61     LegendNANA
13:00 22.6 13.4 56 0.0       98.60 26   LegendNANA
14:00 22.4 11.9 52 0.0       98.57 25   LegendNANA
15:00 23.1 12.9 53 0.0       98.56 26   LegendNANA
16:00 23.2 13.3 54 0.0       98.55 26   LegendNANA
17:00 22.8 13.7 56 0.0       98.54 26   LegendNANA
18:00 22.2 13.9 59 0.0       98.54 26   LegendNANA
19:00 20.4 13.9 66 0.0       98.56     LegendNANA
20:00 18.6 13.6 72 0.0       98.60     LegendNANA
21:00 17.6 14.1 80 0.0       98.63     LegendNANA
22:00 16.7 14.5 87 0.0       98.65     LegendNANA
23:00 16.5 14.7 89 0.0       98.69     LegendNANA

Notes on Data Quality.

Legend

  • E = Estimated
  • M = Missing
  • NA = Not Available*
  • [empty] = Indicates an unobserved value
Date modified: